Weather History for Ionia, MI

Change the Weather History Date:

Thursday, January 3, 2013

  Actual Average (KGRR) Record (KGRR)
Temperature  
Mean Temperature 26 °F 25 °F  
Max Temperature 32 °F 31 °F 59 °F (2004)
Min Temperature 20 °F 19 °F -11 °F (1902)
Degree Days  
Heating Degree Days 39 40  
Month to date heating degree days 120  
Since 1 July heating degree days 2569  
Cooling Degree Days 0 0  
Month to date cooling degree days 0  
Year to date cooling degree days 0  
Moisture  
Dew Point 20 °F    
Average Humidity 71    
Maximum Humidity 82    
Minimum Humidity 63    
Precipitation  
Precipitation 0.00 in 0.07 in 1.50 in (1897)
Month to date precipitation 0.23  
Year to date precipitation 0.23  
Snow  
Snow 0.00 in 0.80 in 9.10 in (1999)
Month to date snowfall 2.2  
Since 1 July snowfall 31.4  
Snow Depth -    
Sea Level Pressure  
Sea Level Pressure 30.07 in    
Wind  
Wind Speed 9 mph (WSW)    
Max Wind Speed 20 mph    
Max Gust Speed 24 mph    
Visibility 7 miles    
Events Snow    
T = Trace of Precipitation, MM = Missing Value Source: NWS Daily Summary

Daily Weather History Graph

Daily Weather History Graph

Search for Another Location

Airport:

Trip Planner

Search our weather history database for the weather conditions in past years. The results will help you decide how hot, cold, wet, or windy it might be!

Date:

Astronomy

Jan. 03, 2013 Rise Set
Actual Time 8:11 AM EST 5:18 PM EST
Civil Twilight 7:39 AM EST 5:50 PM EST
Nautical Twilight 7:03 AM EST 6:26 PM EST
Astronomical Twilight 6:29 AM EST 7:00 PM EST
Moon No Moon Rise 11:12 AM EST (1/3)
Length of Visible Light 10h 11m
Length of Day
9h 07m
Waning Gibbous, 65% of the Moon is Illuminated
Jan 3
Waning Gibbous
Jan 4
Last Quarter
Jan 11
New
Jan 18
First Quarter
Jan 26
Full

Hourly Weather History & Observations

Time (EST) Temp. Windchill Dew Point Humidity Pressure Visibility Wind Dir Wind Speed Gust Speed Precip Events Conditions
12:14 AM 21.0 °F 11.4 °F 13.8 °F 74% 30.10 in 10.0 mi SSW 8.1 mph - N/A   Clear
12:34 AM 20.3 °F 10.6 °F 13.3 °F 74% 30.10 in 10.0 mi South 8.1 mph - N/A   Clear
12:54 AM 20.5 °F 12.8 °F 13.1 °F 73% 30.10 in 7.0 mi South 5.8 mph - N/A   Mostly Cloudy
1:14 AM 20.7 °F 11.9 °F 12.6 °F 71% 30.09 in 10.0 mi South 6.9 mph - N/A   Overcast
1:34 AM 20.8 °F 14.4 °F 11.8 °F 68% 30.08 in 10.0 mi South 4.6 mph - N/A   Overcast
1:54 AM 21.2 °F 12.6 °F 12.0 °F 68% 30.08 in 10.0 mi South 6.9 mph - N/A   Overcast
2:14 AM 21.9 °F 12.5 °F 12.4 °F 67% 30.08 in 10.0 mi SSW 8.1 mph - N/A   Overcast
3:14 AM 22.1 °F 11.3 °F 11.8 °F 65% 30.07 in 10.0 mi SSW 10.4 mph - N/A Snow Light Snow
3:34 AM 22.5 °F 12.4 °F 11.8 °F 64% 30.07 in 7.0 mi SSW 9.2 mph - N/A Snow Light Snow
3:54 AM 22.6 °F 12.6 °F 11.8 °F 63% 30.07 in 10.0 mi SSW 9.2 mph - N/A   Overcast
4:14 AM 22.5 °F 13.2 °F 12.2 °F 65% 30.05 in 7.0 mi SSW 8.1 mph - N/A Snow Light Snow
4:34 AM 22.1 °F 10.0 °F 13.3 °F 69% 30.04 in 2.0 mi SSW 12.7 mph - N/A Snow Light Snow
4:54 AM 22.1 °F 12.0 °F 12.6 °F 67% 30.04 in 7.0 mi SW 9.2 mph - N/A Snow Light Snow
5:14 AM 22.3 °F 13.0 °F 12.2 °F 65% 30.03 in 10.0 mi SSW 8.1 mph - N/A   Overcast
5:34 AM 22.6 °F 13.4 °F 12.7 °F 66% 30.03 in 10.0 mi SSW 8.1 mph - N/A   Overcast
5:54 AM 22.8 °F 14.5 °F 12.6 °F 65% 30.03 in 7.0 mi SSW 6.9 mph - N/A Snow Light Snow
6:14 AM 23.0 °F 15.8 °F 13.8 °F 68% 30.02 in 10.0 mi SSW 5.8 mph - N/A   Overcast
6:34 AM 23.0 °F 13.1 °F 13.6 °F 67% 30.02 in 7.0 mi SSW 9.2 mph - N/A   Overcast
6:54 AM 23.0 °F 11.1 °F 14.2 °F 69% 30.02 in 10.0 mi SSW 12.7 mph 16.1 mph N/A   Overcast
7:14 AM 23.4 °F 13.5 °F 14.5 °F 69% 30.02 in 10.0 mi SW 9.2 mph - N/A   Overcast
7:34 AM 23.9 °F 15.0 °F 15.4 °F 70% 30.02 in 10.0 mi SW 8.1 mph - N/A   Overcast
7:54 AM 24.4 °F 14.9 °F 16.0 °F 70% 30.02 in 10.0 mi SW 9.2 mph - N/A   Overcast
8:14 AM 24.8 °F 14.6 °F 16.9 °F 72% 30.02 in 10.0 mi SW 10.4 mph - N/A   Overcast
8:34 AM 25.3 °F 16.7 °F 17.6 °F 72% 30.03 in 5.0 mi SW 8.1 mph - N/A   Haze
8:54 AM 25.7 °F 16.4 °F 18.3 °F 74% 30.03 in 7.0 mi SW 9.2 mph - N/A   Overcast
9:14 AM 26.4 °F 18.0 °F 19.0 °F 74% 30.03 in 7.0 mi SW 8.1 mph - N/A   Overcast
9:34 AM 27.1 °F 18.9 °F 19.8 °F 74% 30.04 in 5.0 mi SW 8.1 mph - N/A   Haze
9:54 AM 27.3 °F 19.1 °F 20.3 °F 75% 30.04 in 5.0 mi SW 8.1 mph - N/A   Haze
10:34 AM 28.2 °F 18.9 °F 22.1 °F 78% 30.05 in 2.0 mi WSW 10.4 mph - N/A Snow Light Snow
10:54 AM 28.2 °F 19.5 °F 22.5 °F 79% 30.06 in 2.0 mi WSW 9.2 mph - N/A Snow Light Snow
11:14 AM 28.2 °F 20.2 °F 23.0 °F 81% 30.05 in 3.0 mi WSW 8.1 mph - N/A   Haze
11:34 AM 28.4 °F 20.4 °F 23.5 °F 82% 30.04 in 3.0 mi WSW 8.1 mph - N/A   Haze
11:54 AM 29.1 °F 22.1 °F 23.7 °F 80% 30.04 in 4.0 mi West 6.9 mph - N/A   Haze
12:14 PM 29.7 °F 22.0 °F 23.9 °F 79% 30.04 in 3.0 mi WSW 8.1 mph - N/A   Haze
12:34 PM 30.2 °F 22.6 °F 24.6 °F 80% 30.03 in 4.0 mi West 8.1 mph - N/A   Haze
12:54 PM 30.9 °F 23.5 °F 24.6 °F 77% 30.03 in 4.0 mi West 8.1 mph - N/A   Haze
1:14 PM 31.6 °F 24.4 °F 24.8 °F 76% 30.03 in 4.0 mi West 8.1 mph - N/A   Haze
1:34 PM 32.0 °F 24.2 °F 24.8 °F 75% 30.02 in 5.0 mi West 9.2 mph - N/A   Haze
1:54 PM 32.0 °F 23.0 °F 24.8 °F 75% 30.02 in 5.0 mi West 11.5 mph - N/A   Haze
2:14 PM 32.0 °F 20.1 °F 24.1 °F 73% 30.03 in 5.0 mi West 19.6 mph - N/A   Haze
2:34 PM 32.0 °F 22.5 °F 23.9 °F 72% 30.04 in 7.0 mi WNW 12.7 mph - N/A   Overcast
2:54 PM 32.0 °F 23.0 °F 23.7 °F 71% 30.04 in 5.0 mi West 11.5 mph 17.3 mph N/A   Haze
3:14 PM 32.0 °F 21.6 °F 23.7 °F 71% 30.04 in 5.0 mi West 15.0 mph 20.7 mph N/A   Haze
3:34 PM 32.0 °F 22.1 °F 23.9 °F 72% 30.05 in 5.0 mi West 13.8 mph - N/A   Haze
3:54 PM 32.0 °F 22.5 °F 23.9 °F 72% 30.06 in 5.0 mi WNW 12.7 mph - N/A Snow Light Snow
4:14 PM 31.8 °F 21.4 °F 23.4 °F 71% 30.07 in 5.0 mi West 15.0 mph - N/A   Haze
4:34 PM 31.8 °F 22.3 °F 23.2 °F 70% 30.08 in 5.0 mi West 12.7 mph 18.4 mph N/A   Haze
4:54 PM 31.8 °F 22.3 °F 23.0 °F 70% 30.09 in 5.0 mi WNW 12.7 mph - N/A   Haze
5:14 PM 31.6 °F 24.4 °F 23.4 °F 71% 30.09 in 5.0 mi West 8.1 mph - N/A   Haze
5:34 PM 31.5 °F 21.8 °F 23.0 °F 71% 30.10 in 5.0 mi WNW 12.7 mph 20.7 mph N/A   Haze
5:54 PM 31.5 °F 22.9 °F 23.0 °F 71% 30.11 in 7.0 mi WNW 10.4 mph - N/A   Overcast
6:14 PM 31.5 °F 22.3 °F 23.0 °F 71% 30.12 in 7.0 mi WNW 11.5 mph 17.3 mph N/A   Overcast
6:34 PM 31.6 °F 25.1 °F 22.8 °F 70% 30.12 in 7.0 mi West 6.9 mph - N/A   Overcast
6:54 PM 31.6 °F 24.4 °F 23.0 °F 70% 30.13 in 7.0 mi West 8.1 mph - N/A   Overcast
7:14 PM 31.6 °F 24.4 °F 22.8 °F 70% 30.13 in 7.0 mi West 8.1 mph - N/A   Overcast
7:34 PM 31.6 °F 24.4 °F 22.8 °F 70% 30.13 in 10.0 mi West 8.1 mph - N/A   Overcast
7:54 PM 31.6 °F 24.4 °F 23.0 °F 70% 30.13 in 7.0 mi West 8.1 mph - N/A   Overcast
8:14 PM 31.6 °F 24.4 °F 22.5 °F 69% 30.13 in 10.0 mi West 8.1 mph - N/A   Overcast
8:34 PM 31.6 °F 24.4 °F 22.6 °F 69% 30.13 in 10.0 mi West 8.1 mph - N/A   Overcast
8:54 PM 31.8 °F 24.6 °F 22.8 °F 69% 30.13 in 10.0 mi West 8.1 mph - N/A   Overcast
9:14 PM 31.8 °F 24.6 °F 23.4 °F 71% 30.12 in 7.0 mi WSW 8.1 mph - N/A   Overcast
9:34 PM 31.8 °F 23.9 °F 23.7 °F 72% 30.12 in 7.0 mi WSW 9.2 mph - N/A   Overcast
9:54 PM 31.8 °F 23.3 °F 23.9 °F 73% 30.12 in 10.0 mi West 10.4 mph - N/A   Overcast
10:14 PM 32.0 °F 23.6 °F 24.1 °F 73% 30.12 in 7.0 mi West 10.4 mph - N/A   Overcast
10:34 PM 32.0 °F 23.0 °F 23.0 °F 69% 30.12 in 7.0 mi West 11.5 mph 17.3 mph N/A   Overcast
10:54 PM 32.2 °F 22.3 °F 21.6 °F 65% 30.11 in 10.0 mi West 13.8 mph 24.2 mph N/A   Overcast
11:14 PM 32.0 °F 21.6 °F 21.4 °F 65% 30.11 in 10.0 mi West 15.0 mph 20.7 mph N/A   Overcast
11:34 PM 32.0 °F 22.5 °F 21.7 °F 66% 30.11 in 10.0 mi West 12.7 mph 18.4 mph N/A   Overcast
11:54 PM 32.0 °F 22.1 °F 22.1 °F 67% 30.11 in 10.0 mi West 13.8 mph 18.4 mph N/A   Overcast